CST,Max TemperatureF,Mean TemperatureF,Min TemperatureF,Max Dew PointF,MeanDew PointF,Min DewpointF,Max Humidity, Mean Humidity, Min Humidity, Max Sea Level PressureIn, Mean Sea Level PressureIn, Min Sea Level PressureIn, Max VisibilityMiles, Mean VisibilityMiles, Min VisibilityMiles, Max Wind SpeedMPH, Mean Wind SpeedMPH, Max Gust SpeedMPH,PrecipitationIn, CloudCover, Events, WindDirDegrees
2013-11-1,57,50,42,42,39,37,82,69,51,29.95,29.79,29.62,,,,12,4,21,0.02,,,278
2013-11-2,57,45,35,40,36,31,89,70,42,30.21,30.12,29.96,,,,10,7,21,0.00,,,312
2013-11-3,59,44,30,37,33,27,92,64,39,30.24,30.12,29.99,,,,14,5,26,0.00,,,148
2013-11-4,59,54,48,48,44,37,83,70,55,30.14,30.04,29.98,,,,12,6,23,0.02,,,154
2013-11-5,61,56,53,58,53,48,93,89,77,30.14,30.01,29.84,,,,12,6,21,0.60,,,161
2013-11-6,54,44,33,51,35,30,92,79,58,30.36,30.16,29.88,,,,18,10,29,0.39,,,307
2013-11-7,54,42,28,35,28,22,92,67,30,30.40,30.38,30.35,,,,13,3,20,0.00,,,297
2013-11-8,63,45,27,35,31,24,89,56,33,30.38,30.12,29.91,,,,20,5,36,0.00,,,173
2013-11-9,66,54,41,36,33,29,73,48,26,30.33,30.13,29.98,,,,12,5,21,0.00,,,269
2013-11-10,53,44,35,37,31,26,76,60,35,30.48,30.37,30.25,,,,7,3,,0.00,,,54
2013-11-11,57,42,26,47,31,14,74,64,54,30.70,30.35,30.17,,,,15,6,28,0.00,,,346
2013-11-12,35,26,17,15,12,9,81,62,34,30.94,30.83,30.75,,,,9,5,,0.00,,,343
2013-11-13,48,32,17,21,15,11,84,50,24,30.73,30.48,30.22,,,,16,6,24,0.00,,,190
2013-11-14,55,45,35,26,24,21,61,47,30,30.20,30.07,29.99,,,,17,10,24,0.00,,,191
2013-11-15,55,48,41,43,34,26,77,58,47,29.99,29.91,29.79,,,,13,7,20,0.00,,,181
2013-11-16,69,60,50,57,53,44,80,73,63,29.78,29.55,29.43,,,,24,14,40,0.00,,,180
2013-11-17,68,57,46,59,44,25,78,60,23,30.05,29.60,29.29,,,,23,12,32,0.00,,,263
2013-11-18,55,44,32,35,30,27,86,64,34,30.32,30.24,30.06,,,,12,5,,0.00,,,297
2013-11-19,57,44,30,31,27,24,82,53,33,30.31,30.21,30.07,,,,15,6,23,0.00,,,138
2013-11-20,48,44,39,40,33,22,100,70,36,30.08,30.01,29.95,,,,14,10,21,0.38,,,141
2013-11-21,46,38,30,42,37,26,89,82,76,30.44,30.18,30.03,,,,12,5,23,0.19,,,11
2013-11-22,32,28,21,26,22,17,85,79,72,30.69,30.62,30.46,,,,10,7,20,0.00,,,338
2013-11-23,25,20,12,17,10,4,82,63,48,30.88,30.81,30.68,,,,14,6,22,0.00,,,349
2013-11-24,28,19,10,13,8,5,84,61,39,30.87,30.68,30.41,,,,10,3,,0.00,,,171
2013-11-25,41,34,26,24,19,13,85,59,43,30.39,30.27,30.20,,,,9,6,,0.00,,,204
2013-11-26,37,29,19,23,17,9,88,64,42,30.44,30.31,30.19,,,,14,4,24,0.00,,,331
2013-11-27,30,22,15,13,10,7,71,57,43,30.50,30.39,30.23,,,,12,5,17,0.00,,,237
2013-11-28,39,30,19,19,17,14,78,59,41,30.57,30.37,30.20,,,,12,7,17,0.00,,,315
2013-11-29,46,32,17,26,20,13,84,65,42,30.61,30.48,30.32,,,,13,3,,0.00,,,139
2013-11-30,53,40,27,33,27,23,89,69,45,30.30,30.19,30.11,,,,9,3,,0.00,,,182